星链-34613 (STARLINK-34613)

导读 | 豆包AI

STARLINK-34613是美国SpaceX公司星链星座的量产型低轨通信卫星,于2025年8月22日发射升空,是星链全球宽带互联网组网的组成部分。卫星采用平板设计,配备太阳电池阵与氪工质霍尔推进器,搭载Ku/Ka波段通信载荷,具备自主避撞能力,工作在近地轨道,预计服务寿命5-7年,退役后将再入大气层烧毁。

基本信息
目录编号:
65294
目录名称:
STARLINK-34613
国际标识:
2025-184X
轨道中心:
EARTH
卫星名称:
星链-34613
卫星全名:
星链-34613 (STARLINK-34613)
卫星状态:
在轨 (已飞行250 天)
发射日期:
2025-08-22 UTC
国别 :
美国 (US)
星等 :
--
轨道信息
数据来源 国际轨道数据 AOE轨道数据
星历时间 2026-04-29T10:25:31+0800
8小时前
查看轨道信息
2026-04-24T00:00:00+0800
5天前
查看轨道信息
半长轴 6927.694km 6927.658km
偏心率 0.0000498 0.0001217
轨道倾角 97.561° 97.584°
近地点辐角 174.507° 107.993°
升交点赤经 172.283° 166.954°
平近点角 185.616° 334.474°
近地点 549.212km 548.677km
远地点 549.902km 550.365km
周期 95.641分钟 95.640分钟
每日圈数 15.056351 15.056471
详细信息
固有亮度:
5
最大亮度:
2.5
卫星平台:
Starlink V1.0
覆盖范围:
全球
运营商:
太空探索技术公司
运营商所在国:
美国
制造商(研发单位):
太空探索技术公司
制造商所在国:
美国
使用方式:
暂无
卫星简介
Starlink 计划是 SpaceX 推出的全球卫星互联网项目,通过发射低轨道卫星,为全球尤其是偏远地区提供高速、低延迟的互联网服务。自 2019 年起,Starlink 已部署数千颗卫星,旨在缩小全球数字鸿沟,推动互联网普及。该项目还为军事、航空等行业提供通信支持,带来广泛经济效益。
2D轨道图
3D轨道图
轨道高度分析图
轨道倾角分析图
轨道综合分析图
查看轨道综合分析图